Regional Weather Roundup
Issued by NWS Cleveland, OH

Home | Current Version | Previous Version | Graphics & Text | Print | Product List | Glossary On
Versions: 1 2 3 4 5 6 7 8 9 10 11 12 13 14 15 16 17 18 19 20 21 22 23 24 25 26 27 28 29 30 31 32 33 34 35 36 37 38 39 40 41 42 43 44 45 46 47 48 49 50
000
ASUS41 KCLE 280802
RWRCLE
OHIO REGIONAL WEATHER ROUNDUP
NATIONAL WEATHER SERVICE CLEVELAND, OH
400 AM EDT THU AUG 28 2014

NOTE: "FAIR" INDICATES FEW OR NO CLOUDS BELOW 12,000 FEET WITH NO
SIGNIFICANT WEATHER AND/OR OBSTRUCTIONS TO VISIBILITY.

OHZ001>008-015>018-024>027-034-035-043-044-280900-
   NORTHWEST OHIO

CITY           SKY/WX    TMP DP  RH WIND       PRES   REMARKS
DEFIANCE       CLEAR     61  58  90 NW5       30.12R
FINDLAY        MOCLDY    67  62  84 CALM      30.10R
TOLEDO EXPRESS CLEAR     62  59  90 N5        30.11R
TOLEDO EXEC    PTCLDY    65  58  78 NE5       30.11R
LIMA           FOG       63  61  93 CALM      30.11R VSB 1
$$

OHZ009>014-019>023-028>033-038-089-280900-
   NORTHEAST OHIO

CITY           SKY/WX    TMP DP  RH WIND       PRES   REMARKS
CLE-HOPKINS    CLEAR     63  55  75 NE3       30.11R
CLE-LAKEFRONT  CLEAR     64  56  75 E7        30.08R
CUY CO. ARPT   NOT AVBL
LORAIN-ELYRIA  CLEAR     62  57  83 CALM      30.10S
ASHTABULA      CLEAR     58  52  80 VRB5      30.09F
AKRON-CANTON   PTCLDY    60  54  80 NE3       30.09S
WOOSTER        CLEAR     58  55  90 CALM      30.11R
MANSFIELD      CLEAR     61  61 100 CALM      30.11R
YOUNGSTOWN     MOCLDY    58  54  86 N5        30.08S
$$

OHZ042-051>053-060>062-070>072-077>081-280900-
  SOUTHWEST OHIO

CITY           SKY/WX    TMP DP  RH WIND       PRES   REMARKS
CINC-COVINGTON CLEAR     73  68  84 NE7       30.06S
CINC-LUNKEN    CLEAR     71  69  93 NE3       30.06S
HAMILTON       CLEAR     70  66  87 NE5       30.07S
DAYTON         CLEAR     66  62  87 NE5       30.10S
WRIGHT-PAT AFB CLEAR     66  64  93 N2        30.09R
DAYTON GENERAL CLEAR     67  64  90 NE7       30.07S
WILMINGTON     CLEAR     65  62  90 NE6       30.07F FOG
$$

OHZ036-037-039>041-045>050-054>059-063>069-073>076-082>088-280900-
  CENTRAL AND SOUTHEAST OHIO

CITY           SKY/WX    TMP DP  RH WIND       PRES   REMARKS
COLUMBUS       CLEAR     67  61  81 CALM      30.08S
OSU AIRPORT    CLEAR     64  60  87 N3        30.09R
BOLTON FIELD   CLEAR     64  61  91 CALM      30.09S
RICKENBACK AFB CLEAR     66  58  77 NE3       30.08S
NEWARK         CLEAR     64  60  87 CALM      30.08S
MARION         CLEAR     61  59  93 CALM      30.10S FOG
LANCASTER      CLEAR     63  61  93 CALM      30.08S
ZANESVILLE     CLEAR     63  59  87 CALM      30.09R
NEW PHILLY     CLEAR     60  58  92 CALM      30.10R
$$


USA.gov is the U.S. government's official web portal to all federal, state and local government web resources and services.